Total_Precipitation_Accumulation
0.00 0.00 0.00 0.00 0.00 0.00 0.01 0.01 0.03 0.01 0.03 0.03 0.10 0.22 0.77 0.52 0.79 0.82 1.11 0.90 1.49 1.99 1.76 2.54 2.07 2.00 1.54 1.76 2.19 2.65 1.85 1.76 1.28 1.12 1.09 0.75 0.91 1.08 1.40 1.25 0.47 0.49 1.14 0.86 0.66 0.56 0.38 1.17 1.00 1.03 0.83 0.71 0.69 0.79 0.55 0.73 1.24 1.21 1.04 1.07 0.78 0.72 1.28 1.00 0.84 1.10 0.64 0.63 1.11 0.91 0.65 1.03 1.19 1.31 1.02 0.97 1.03 1.56 1.78 2.18 2.31 2.47 2.05 2.31 2.81 2.53
0.00 0.00 0.00 0.00 0.00 0.00 0.00 0.00 0.01 0.02 0.02 0.12 0.07 0.32 0.47 0.50 1.00 0.94 1.18 1.27 2.43 1.69 1.95 2.11 2.44 2.75 2.31 2.17 2.26 2.61 1.62 1.44 0.84 0.69 0.70 1.50 0.77 1.55 1.08 1.13 0.77 0.70 0.78 0.88 0.60 0.98 0.97 1.20 1.01 0.81 0.76 0.94 0.66 0.52 0.70 0.75 1.15 1.19 1.12 1.21 0.96 0.61 1.01 1.06 1.11 0.70 0.90 1.18 0.95 1.12 1.42 1.33 0.91 0.78 0.83 0.83 0.91 1.69 2.26 1.27 1.60 1.48 1.52 1.29 1.07 1.52
0.00 0.00 0.00 0.00 0.00 0.00 0.00 0.00 0.00 0.03 0.04 0.04 0.12 0.39 0.59 0.48 0.62 0.79 1.67 1.30 2.02 1.57 2.95 2.92 2.81 3.60 3.10 2.65 2.67 2.44 1.50 1.78 1.37 1.12 1.50 0.85 1.10 1.06 1.25 0.67 0.54 0.70 0.69 0.67 1.17 1.16 1.07 1.32 1.06 0.52 0.77 0.78 0.81 0.56 0.49 0.94 1.21 1.05 1.11 1.19 1.12 0.78 0.59 0.74 1.07 0.82 1.01 0.99 1.34 1.37 1.51 1.09 0.87 0.84 0.88 1.02 1.43 1.84 1.66 1.01 1.57 1.53 0.94 1.04 0.97 1.28
0.00 0.00 0.00 0.00 0.00 0.00 0.00 0.00 0.00 0.00 0.01 0.02 0.04 0.14 0.23 0.70 0.31 0.68 1.73 1.73 2.80 1.02 3.03 2.41 1.64 3.14 3.84 3.33 3.28 2.56 1.69 2.07 2.52 1.87 1.16 1.57 1.94 1.27 0.92 0.96 0.37 0.42 0.89 0.91 0.88 1.00 1.98 1.34 1.32 1.08 0.73 0.94 0.69 0.82 0.48 0.77 0.80 0.84 0.95 1.06 0.92 0.61 0.56 0.51 0.76 0.69 1.20 1.44 1.68 1.29 1.00 1.54 0.74 0.90 0.91 0.70 0.80 1.30 1.71 1.32 1.85 1.55 1.04 1.37 1.42 0.97
0.00 0.00 0.00 0.00 0.00 0.00 0.00 0.00 0.00 0.00 0.01 0.00 0.00 0.02 0.12 0.12 0.34 0.42 0.94 0.48 1.75 1.81 1.26 2.52 3.08 3.38 2.58 3.20 2.45 2.53 1.84 2.70 2.36 2.70 2.11 1.94 1.88 1.39 1.21 0.77 0.79 0.72 0.66 1.28 0.96 1.54 1.87 1.08 1.40 1.08 0.94 1.15 1.00 0.72 0.58 0.61 0.87 0.93 0.85 0.80 0.84 0.85 0.36 0.29 0.62 0.59 1.32 1.51 1.24 1.34 1.02 1.04 1.21 0.57 0.61 0.86 0.74 1.11 1.64 1.61 1.16 1.72 1.42 1.22 1.24 0.74
0.00 0.00 0.00 0.00 0.00 0.00 0.00 0.00 0.00 0.00 0.01 0.00 0.00 0.02 0.03 0.03 0.40 0.13 0.21 0.20 0.82 1.59 0.85 0.98 2.17 3.47 1.66 1.84 1.34 1.74 2.16 1.98 2.26 2.29 2.06 1.65 1.44 0.66 0.67 0.55 1.30 1.79 1.73 1.41 0.77 0.89 1.67 1.29 1.36 1.07 1.00 1.19 1.05 0.71 0.82 1.25 0.92 0.79 0.66 0.79 0.86 1.10 0.78 0.34 0.56 0.94 0.55 0.83 1.01 1.27 0.98 0.93 0.67 0.38 0.52 0.75 1.14 0.69 1.50 1.64 1.62 1.87 1.51 1.08 1.26 1.45
0.00 0.00 0.00 0.00 0.00 0.00 0.00 0.01 0.00 0.00 0.00 0.00 0.04 0.00 0.00 0.03 0.24 0.20 0.29 0.46 0.70 1.29 1.21 0.67 1.00 2.54 1.87 1.71 1.88 1.95 1.59 1.91 2.73 1.92 1.94 1.89 1.42 0.76 0.80 0.64 1.32 2.59 2.66 1.44 1.47 1.75 1.38 1.10 1.10 1.06 0.59 0.71 1.00 0.69 1.16 1.24 1.29 1.14 1.25 1.27 1.00 0.77 0.92 0.84 1.21 1.03 0.66 1.00 1.01 0.85 1.07 0.86 0.83 0.36 0.60 1.11 1.62 1.39 1.23 1.56 1.39 1.14 1.16 0.94 1.19 1.11
0.00 0.00 0.00 0.00 0.00 0.00 0.00 0.00 0.00 0.00 0.00 0.01 0.00 0.02 0.01 0.04 0.08 0.03 0.20 0.40 0.84 0.49 0.92 0.83 0.40 1.49 1.69 1.52 1.27 1.95 1.88 1.83 2.19 1.58 2.27 1.95 1.04 1.20 0.58 1.10 1.68 2.48 2.57 2.26 1.59 1.58 1.33 1.49 1.15 1.12 1.58 1.11 0.57 0.93 1.76 2.04 2.10 1.85 1.32 0.68 0.95 0.93 0.71 1.06 0.90 0.74 0.75 0.83 0.81 0.81 0.71 1.31 0.69 0.63 0.97 0.59 0.92 1.39 1.85 1.11 0.59 1.04 1.47 1.38 0.80 0.82
0.00 0.00 0.00 0.00 0.00 0.00 0.00 0.00 0.02 0.00 0.00 0.02 0.01 0.01 0.01 0.09 0.03 0.01 0.03 0.13 0.26 0.17 0.91 0.59 0.44 0.93 1.06 1.58 1.02 1.71 2.47 2.04 2.10 2.16 1.57 1.47 0.91 0.70 0.75 0.69 1.04 1.81 1.75 1.93 1.71 1.72 1.41 1.76 1.26 1.08 1.21 0.99 0.76 1.26 1.74 1.96 1.67 1.51 2.35 2.49 1.69 1.46 1.58 1.59 1.34 0.85 0.76 1.20 1.29 1.13 1.18 0.56 1.12 0.97 1.79 1.53 0.63 1.02 0.95 0.82 1.36 1.14 1.25 0.63 0.77 0.65
0.00 0.00 0.00 0.00 0.00 0.00 0.00 0.00 0.00 0.00 0.00 0.00 0.00 0.00 0.00 0.04 0.07 0.05 0.10 0.24 0.29 0.13 0.34 0.25 0.43 0.69 1.10 1.66 1.22 1.61 1.70 1.27 1.33 1.53 1.31 1.54 0.95 0.70 0.74 0.78 0.81 1.16 1.13 2.29 2.10 1.81 2.22 2.18 2.25 1.83 1.29 1.32 1.17 1.73 1.79 2.68 3.45 2.55 2.77 2.33 2.52 2.39 1.81 1.69 1.32 0.82 1.06 1.31 1.65 1.56 1.18 0.96 0.88 1.10 1.34 1.49 1.24 0.98 1.25 1.38 0.87 0.93 1.30 0.64 0.49 0.75
0.00 0.00 0.00 0.00 0.00 0.00 0.00 0.00 0.01 0.03 0.00 0.00 0.00 0.00 0.01 0.02 0.02 0.07 0.30 0.53 0.39 0.23 0.19 0.14 0.27 0.18 1.19 1.18 0.74 1.30 0.71 0.87 0.87 1.34 1.33 1.25 0.97 0.84 0.73 0.51 0.54 0.55 0.73 1.83 2.28 2.64 1.97 2.31 2.23 2.69 1.74 1.80 1.61 1.98 2.67 2.24 2.74 2.40 2.81 3.27 3.47 3.06 2.26 1.77 1.00 1.18 1.69 3.00 2.73 1.77 1.80 1.45 1.74 0.90 0.81 1.21 0.96 1.66 1.18 1.06 0.79 0.93 0.67 0.81 0.58 0.78
0.00 0.00 0.00 0.00 0.00 0.00 0.00 0.04 0.00 0.01 0.02 0.00 0.01 0.20 0.09 0.27 0.57 0.52 1.15 1.33 0.39 0.29 0.13 0.29 0.38 0.46 0.72 1.67 1.18 0.40 0.35 0.26 0.53 1.13 1.48 1.37 0.83 0.78 0.83 0.93 0.44 0.61 0.80 1.08 1.58 1.89 2.10 1.64 1.98 1.49 1.77 2.49 2.23 2.80 2.21 2.48 2.17 1.94 2.01 3.54 2.30 2.37 2.54 2.07 2.30 2.95 2.72 2.49 2.83 2.98 1.20 1.23 2.04 1.44 1.11 0.72 0.59 0.90 0.93 1.29 1.58 1.11 0.90 0.37 0.54 1.04
0.00 0.00 0.00 0.00 0.00 0.00 0.00 0.01 0.01 0.00 0.00 0.00 0.03 0.05 0.24 0.75 1.07 0.50 1.20 0.60 0.41 0.62 0.65 0.51 0.69 1.38 0.43 0.51 0.42 0.41 0.26 0.64 0.43 0.51 0.61 1.04 1.01 0.83 0.74 0.74 0.91 0.92 0.62 0.89 0.66 0.99 1.34 1.33 1.57 1.95 1.92 2.52 2.66 3.24 2.48 2.23 2.08 1.35 2.03 2.02 2.04 1.93 3.24 2.66 2.92 3.21 2.91 2.31 2.42 2.26 1.37 1.63 1.61 1.67 0.87 0.56 0.77 0.73 0.84 1.00 1.35 1.20 0.81 0.63 0.73 0.66
0.00 0.00 0.00 0.00 0.00 0.00 0.00 0.01 0.05 0.00 0.08 0.01 0.03 0.06 0.06 0.29 0.25 0.34 0.25 0.25 0.36 0.26 0.39 0.55 0.93 0.76 0.48 0.32 0.17 0.32 0.43 0.26 0.55 0.58 0.48 0.89 0.85 0.79 0.56 0.36 0.74 0.74 0.59 0.62 0.60 0.85 0.82 1.15 1.55 1.19 1.39 1.77 2.40 2.35 2.52 2.06 1.74 1.07 1.19 1.58 1.96 2.06 3.19 4.03 3.74 3.42 2.62 2.45 1.97 1.97 1.97 1.33 0.99 0.90 0.86 0.80 1.05 0.86 0.87 1.04 1.18 1.20 1.16 1.12 0.74 0.55
0.03 0.00 0.00 0.00 0.00 0.00 0.00 0.00 0.00 0.02 0.00 0.08 0.02 0.03 0.05 0.14 0.19 0.42 0.39 0.59 0.32 0.84 0.58 0.69 0.35 1.08 0.65 3.56 0.28 0.55 0.15 0.20 0.18 0.31 0.39 0.58 1.15 1.17 1.00 0.63 0.62 0.53 0.67 0.91 0.93 1.04 0.94 0.88 1.55 1.28 1.41 1.78 2.54 2.79 1.64 2.42 1.96 0.93 1.15 0.90 1.21 2.24 1.89 2.82 4.05 3.89 2.80 2.20 1.67 1.72 2.00 2.03 1.77 1.46 0.98 0.85 1.29 1.21 1.10 1.60 0.93 1.10 0.93 0.67 0.96 1.11
0.00 0.00 0.00 0.00 0.00 0.00 0.00 0.00 0.00 0.01 0.01 0.02 0.09 0.04 0.01 0.03 0.01 0.09 0.26 0.19 0.22 0.33 0.48 0.84 0.60 0.56 1.02 0.50 0.41 0.37 0.35 0.28 0.30 0.51 0.66 1.23 1.06 1.10 1.12 1.11 0.82 0.60 1.05 1.04 1.28 1.30 0.97 0.59 0.89 1.07 1.36 1.67 1.61 2.21 1.84 1.45 1.49 1.16 1.59 1.27 1.77 1.94 2.46 3.48 3.28 4.49 3.25 2.34 2.14 2.11 2.02 1.57 1.16 0.82 1.20 1.73 1.59 1.14 1.60 1.51 1.16 1.07 1.13 0.86 0.66 1.15
0.00 0.01 0.00 0.00 0.00 0.00 0.00 0.00 0.00 0.00 0.05 0.02 0.02 0.06 0.00 0.01 0.01 0.16 0.04 0.07 0.08 0.22 0.42 0.26 0.47 0.28 0.20 0.39 0.42 0.74 0.88 0.64 0.50 0.53 0.42 0.98 0.90 0.80 0.77 0.87 1.12 0.60 0.79 0.85 1.02 0.94 0.84 0.75 0.29 0.34 0.99 1.42 1.22 1.57 1.21 1.36 1.09 1.21 1.33 1.34 2.25 2.18 2.85 2.28 2.02 2.37 3.45 2.12 2.68 1.87 2.54 1.74 1.56 0.93 0.72 0.80 0.74 0.80 0.88 1.18 1.07 0.95 1.14 0.64 0.62 0.74
0.01 0.05 0.00 0.00 0.00 0.00 0.00 0.00 0.00 0.00 0.00 0.01 0.06 0.01 0.00 0.00 0.08 0.05 0.32 0.16 0.22 0.39 0.89 0.25 0.47 0.77 0.58 2.01 0.62 1.06 1.02 1.03 0.50 0.35 0.69 0.88 0.83 1.17 0.70 0.80 0.95 1.17 1.29 1.25 1.27 0.72 0.34 0.55 0.30 0.48 0.50 0.87 0.87 1.12 1.66 1.57 1.42 1.40 1.33 0.96 1.50 2.21 2.03 2.03 2.30 2.99 3.32 2.68 2.30 2.07 1.61 1.00 0.96 0.63 0.93 1.10 1.25 1.23 1.29 1.44 0.62 1.16 0.86 0.86 0.89 0.82
0.00 0.04 0.00 0.00 0.00 0.00 0.00 0.00 0.03 0.01 0.00 0.01 0.02 0.01 0.05 0.21 0.17 0.05 0.10 0.32 0.33 0.53 0.63 0.60 0.65 0.58 0.76 1.34 0.54 0.71 0.53 0.65 0.65 0.92 1.19 0.95 1.26 1.61 1.46 1.12 1.28 1.18 1.21 1.17 0.96 0.68 0.67 0.46 0.47 0.48 0.83 0.79 0.99 0.84 1.12 1.70 1.53 0.87 0.63 1.17 1.46 1.67 1.77 1.51 2.06 2.13 2.38 2.40 2.53 2.45 1.58 0.71 0.93 1.00 1.34 1.41 1.15 1.40 1.47 1.11 1.08 1.03 1.15 1.33 0.77 0.67
0.00 0.02 0.01 0.00 0.00 0.00 0.00 0.00 0.04 0.00 0.01 0.00 0.00 0.02 0.00 0.06 0.06 0.12 0.04 0.23 0.20 0.48 0.31 1.46 0.90 1.34 1.15 1.39 0.40 0.84 0.79 0.67 0.76 0.50 0.71 1.29 1.53 1.64 1.88 1.47 1.03 1.07 1.50 1.38 0.69 0.43 0.53 0.51 0.89 1.13 1.26 1.13 1.01 1.13 1.29 1.40 1.50 1.39 1.00 0.96 1.24 2.18 1.93 1.75 2.45 2.54 2.69 2.37 2.29 1.90 1.82 1.95 1.88 1.80 1.38 0.84 0.88 0.79 1.04 0.88 1.27 1.40 0.93 0.82 0.81 0.56
0.01 0.00 0.05 0.03 0.00 0.00 0.05 0.00 0.02 0.01 0.02 0.01 0.00 0.01 0.01 0.00 0.14 0.03 0.04 0.04 0.25 0.25 0.27 0.55 0.99 0.98 0.98 0.57 0.78 0.77 0.47 0.40 0.48 0.69 1.34 2.01 1.76 1.85 1.43 1.83 2.20 1.56 1.29 0.83 0.50 0.46 0.62 0.75 0.89 1.10 1.07 1.84 1.93 1.55 1.45 1.61 1.47 1.54 1.38 0.61 0.61 1.10 1.06 1.31 1.48 1.53 1.71 2.06 0.98 1.73 1.78 2.21 1.86 1.56 1.85 1.29 0.76 0.81 0.82 1.13 1.07 1.08 1.00 1.19 1.64 0.60
0.00 0.00 0.03 0.03 0.06 0.03 0.07 0.00 0.01 0.00 0.00 0.01 0.01 0.04 0.05 0.03 0.12 0.16 0.60 0.03 0.03 0.12 0.36 0.39 1.00 1.24 0.77 0.94 0.90 1.61 1.50 1.41 0.98 1.27 1.68 2.03 1.99 1.94 1.53 2.30 2.45 1.26 0.93 0.50 0.42 0.41 0.78 1.18 0.96 1.21 1.28 1.79 2.23 2.47 1.85 1.45 1.38 1.70 1.25 0.94 0.97 1.20 1.63 1.79 1.17 1.53 1.89 0.96 1.17 1.32 1.14 1.70 1.94 1.76 1.45 1.71 2.09 1.01 0.87 0.78 0.79 0.84 1.18 0.61 1.27 1.14
0.00 0.03 0.01 0.17 0.04 0.07 0.01 0.01 0.00 0.00 0.00 0.00 0.00 0.03 0.01 0.01 0.01 0.05 0.07 0.18 0.02 0.12 0.04 0.32 0.49 1.84 0.57 0.90 0.96 0.94 0.73 0.83 0.94 1.12 1.48 1.78 1.49 1.30 1.42 1.80 2.42 1.67 1.09 0.53 0.67 1.17 1.22 1.05 1.22 1.50 1.70 1.51 2.07 1.95 2.14 2.66 1.51 0.99 0.97 1.23 1.26 1.71 1.51 0.92 1.05 1.25 1.66 1.78 1.25 0.96 1.34 1.63 1.77 1.10 1.30 1.43 1.85 1.81 1.22 0.63 0.92 0.96 1.10 0.93 1.09 0.96
0.00 0.03 0.03 0.03 0.02 0.02 0.00 0.01 0.00 0.00 0.01 0.00 0.00 0.00 0.00 0.04 0.01 0.07 0.10 0.08 0.20 0.25 0.12 0.56 0.53 1.56 0.58 0.47 0.90 1.39 1.10 0.87 1.04 0.98 1.30 1.14 0.82 0.90 2.44 1.53 2.36 1.99 2.03 1.49 1.04 1.15 1.74 1.98 1.95 1.75 2.53 2.08 2.05 1.93 2.39 2.58 2.02 1.61 1.03 0.87 0.97 0.71 1.09 1.23 1.19 1.76 1.66 1.58 1.17 0.80 0.89 0.73 1.35 1.80 1.55 1.67 1.54 1.62 1.34 1.18 1.11 1.05 1.49 2.74 2.46 1.61
0.01 0.08 0.06 0.25 0.17 0.08 0.12 0.00 0.00 0.00 0.00 0.02 0.03 0.02 0.03 0.01 0.00 0.01 0.03 0.02 0.10 0.15 0.22 0.19 0.97 1.28 0.75 0.41 0.36 0.87 0.69 0.67 0.93 0.96 0.81 0.63 0.93 1.24 1.44 2.19 1.67 1.84 1.69 2.03 2.67 2.33 2.37 2.22 2.15 2.27 2.12 2.23 2.28 2.34 1.86 1.58 2.35 2.29 2.40 1.70 1.30 1.69 1.01 1.25 1.70 1.44 1.74 2.31 1.84 1.53 1.35 1.34 1.81 2.68 2.09 2.03 1.78 1.71 1.33 1.37 0.99 1.06 0.95 1.51 1.33 1.72
0.00 0.13 0.08 0.25 0.32 0.35 0.42 0.50 0.69 0.51 0.27 0.19 0.05 0.08 0.05 0.05 0.08 0.08 0.07 0.06 0.03 0.28 0.12 0.26 0.73 0.80 0.76 0.48 0.42 0.57 0.47 0.51 0.69 0.65 0.77 0.97 1.36 0.83 1.11 1.27 1.93 2.06 2.28 2.58 3.28 2.62 2.88 2.21 2.30 2.31 2.24 2.09 1.91 2.59 2.30 2.53 1.92 1.63 1.53 1.68 1.25 1.45 1.15 1.53 1.29 1.48 1.29 1.57 1.77 2.43 2.28 2.16 2.24 2.05 2.61 1.77 1.37 1.62 1.33 1.28 1.42 1.49 0.97 1.63 1.43 1.52
0.06 0.03 0.05 0.06 0.11 0.31 0.50 0.15 0.03 0.03 0.08 0.14 0.12 0.05 0.06 0.06 0.03 0.11 0.09 0.13 0.28 0.16 0.28 0.44 0.33 0.47 0.39 0.62 0.34 0.42 0.52 0.50 0.54 0.65 0.68 0.54 0.55 1.07 0.91 1.40 1.53 1.77 2.47 3.06 2.91 3.37 2.57 2.62 2.15 1.49 1.77 2.51 2.80 2.42 2.01 1.75 1.64 1.46 1.41 1.88 1.63 1.88 1.79 1.45 1.84 2.43 2.45 1.54 1.70 2.14 2.11 1.80 1.45 1.43 1.53 1.10 1.47 1.51 1.42 1.38 1.38 1.36 1.54 1.84 1.80 1.53
0.02 0.06 0.11 0.06 0.01 0.12 0.19 0.10 0.08 0.05 0.09 0.10 0.20 0.14 0.06 0.08 0.05 0.02 0.07 0.45 0.13 0.08 0.27 0.65 0.43 0.41 0.60 0.39 0.31 0.39 0.44 0.66 0.53 0.48 0.50 0.52 0.65 0.57 0.86 1.10 1.02 1.85 1.77 3.02 2.52 2.14 1.93 2.15 1.64 1.90 2.03 2.43 2.67 3.28 3.00 2.68 2.12 2.15 1.88 1.90 2.33 2.61 2.86 3.15 2.40 2.04 1.99 2.30 1.58 2.13 1.96 2.38 1.88 2.08 1.89 2.10 1.73 1.64 1.32 1.28 1.58 1.44 1.69 2.03 2.14 1.35
0.12 0.10 0.22 0.03 0.04 0.04 0.08 0.15 0.37 0.22 0.15 0.13 0.15 0.21 0.41 0.19 0.08 0.10 0.04 0.02 0.10 0.10 0.43 0.71 0.44 0.45 0.52 0.27 0.24 0.34 0.61 0.77 0.82 0.56 0.78 0.44 0.46 0.41 0.56 0.61 0.85 1.24 2.68 3.11 3.01 2.22 1.98 2.14 2.04 1.74 2.24 2.52 2.88 3.68 3.97 3.14 2.88 2.73 2.04 2.15 2.58 2.05 2.63 2.79 3.05 2.39 1.60 1.84 2.32 1.37 1.47 2.28 2.18 2.07 2.02 3.16 2.89 2.52 1.67 1.23 1.31 1.83 1.77 1.87 1.94 1.52
0.02 0.14 0.07 0.04 0.11 0.07 0.06 0.06 0.11 0.15 0.13 0.13 0.10 0.11 0.05 0.18 0.31 0.12 0.03 0.05 0.05 0.11 0.10 0.29 0.19 0.38 0.31 0.43 0.54 0.58 0.40 0.80 0.90 0.51 0.62 0.65 0.83 0.72 0.66 0.49 0.57 0.91 1.53 3.05 2.56 2.92 2.71 2.16 2.57 2.15 2.25 2.35 2.58 3.11 3.35 3.81 3.46 3.23 3.10 2.78 3.87 4.37 4.14 3.16 2.57 2.77 2.62 2.95 1.87 1.72 2.14 1.79 1.87 2.01 1.64 1.48 1.57 2.60 2.59 1.79 2.11 1.77 1.77 2.07 1.89 1.37
0.02 0.31 0.06 0.12 0.20 0.14 0.08 0.18 0.20 0.28 0.28 0.24 0.13 0.09 0.14 0.17 0.17 0.22 0.27 0.16 0.12 0.13 0.14 0.44 0.18 0.29 0.45 0.37 0.88 0.88 0.75 0.90 0.81 1.16 0.75 0.91 0.72 0.84 0.84 0.87 0.80 0.98 1.24 1.85 2.65 3.54 2.23 2.36 2.57 2.57 2.46 2.74 2.15 2.29 2.65 3.75 3.57 3.31 3.18 3.23 4.63 4.48 5.51 4.18 3.55 3.67 1.70 2.34 1.86 2.94 2.52 1.91 1.68 1.76 2.15 1.77 2.16 2.77 3.41 3.59 2.99 3.09 2.34 1.77 1.49 1.21
0.00 0.20 0.03 0.11 0.13 0.17 0.11 0.08 0.03 0.03 0.08 0.11 0.18 0.28 0.23 0.19 0.23 0.21 0.21 0.36 0.29 0.19 0.30 0.41 0.40 0.63 0.67 0.32 0.95 0.83 0.50 0.58 1.18 1.28 0.97 0.65 0.49 0.55 0.33 0.44 0.57 0.68 0.99 1.14 2.40 2.55 2.87 2.82 2.25 2.52 2.81 3.36 3.06 2.91 3.31 3.59 4.19 4.33 5.87 4.77 3.54 4.64 5.53 5.14 4.25 4.35 3.26 2.61 2.60 3.41 3.29 1.62 1.35 1.49 2.04 2.57 3.15 3.53 2.83 3.42 2.46 1.86 1.64 1.92 2.15 1.94
0.07 0.13 0.19 0.17 0.16 0.26 0.12 0.07 0.07 0.03 0.03 0.08 0.25 0.10 0.26 0.13 0.22 0.08 0.11 0.20 0.28 0.23 0.60 0.67 1.06 0.57 0.72 0.77 1.03 1.05 0.79 0.83 0.92 0.99 0.96 0.60 0.49 0.70 0.49 0.44 0.62 0.57 0.63 0.74 0.71 1.84 3.17 2.55 3.48 3.65 2.96 3.01 3.08 2.95 3.27 3.63 4.09 4.76 5.20 4.29 4.86 5.67 4.84 4.09 6.69 6.56 4.70 4.02 3.56 4.21 2.90 2.74 2.51 2.87 2.50 2.48 2.83 2.55 2.27 2.46 2.32 2.02 2.24 2.68 2.46 2.29
0.05 0.03 0.08 0.07 0.09 0.23 0.11 0.09 0.17 0.16 0.29 0.54 0.22 0.09 0.05 0.25 0.17 0.31 0.42 0.34 0.34 0.36 0.75 0.93 0.60 0.48 0.57 1.02 0.63 0.60 0.70 1.22 1.11 1.32 1.02 1.05 0.79 0.58 0.68 0.90 1.10 1.92 1.45 1.26 1.26 1.22 1.53 2.54 3.09 2.84 2.97 2.70 2.84 3.75 3.31 2.90 3.44 3.95 4.38 4.68 4.58 3.52 3.16 3.06 4.23 3.75 4.91 5.95 4.93 3.97 3.02 2.99 3.33 3.00 2.78 2.85 2.34 1.61 1.24 1.52 1.79 2.18 2.02 2.66 3.30 2.27
0.05 0.04 0.10 0.09 0.06 0.28 0.17 0.05 0.55 0.51 0.60 0.27 0.15 0.11 0.03 0.11 0.12 0.20 0.29 0.29 0.38 0.45 0.46 0.62 0.49 0.55 0.61 0.78 0.73 1.13 1.20 1.16 1.07 0.88 1.22 1.07 1.15 1.21 0.88 1.31 0.84 0.99 2.04 1.77 1.36 1.59 1.77 1.59 1.62 2.77 2.56 2.44 2.60 2.97 2.60 3.83 3.21 4.03 4.84 3.78 3.31 2.70 2.92 2.52 4.40 4.84 4.40 4.62 4.57 4.75 4.58 3.65 4.28 4.93 4.44 3.78 3.27 3.02 1.95 1.80 1.81 2.20 2.52 2.62 2.82 3.06
0.09 0.04 0.13 0.04 0.06 0.11 0.11 0.23 0.90 0.65 0.32 0.12 0.13 0.08 0.05 0.11 0.21 0.27 0.38 0.23 0.36 0.70 0.53 0.73 0.84 1.15 1.14 1.34 1.13 1.34 1.43 0.93 0.83 1.32 1.59 1.12 0.72 0.78 0.71 0.73 1.41 1.44 1.73 2.06 2.04 2.08 1.29 1.66 2.21 3.67 3.95 3.22 2.15 2.89 3.01 3.22 3.51 4.55 4.51 4.71 3.45 3.62 2.90 3.41 3.37 4.19 4.58 4.60 4.41 4.38 4.70 4.26 4.48 4.60 4.52 4.17 4.70 3.16 3.28 3.44 3.08 2.66 2.69 2.48 2.94 1.61
0.07 0.08 0.05 0.12 0.06 0.25 0.15 0.31 0.35 0.68 0.27 0.26 0.36 0.18 0.12 0.24 0.29 0.31 0.85 0.60 0.32 0.45 0.68 0.76 0.79 0.49 1.05 1.61 1.86 1.55 1.06 0.94 1.01 0.92 0.92 1.32 0.61 0.77 0.49 0.48 0.37 0.48 0.64 0.60 0.48 1.66 1.92 2.18 2.75 4.36 4.04 3.11 3.09 3.37 3.86 4.35 4.68 4.16 3.27 3.48 3.61 3.79 3.91 3.49 3.07 3.37 4.20 3.79 5.17 5.71 5.66 5.31 5.48 5.22 4.65 4.90 4.63 4.71 3.97 4.34 4.28 3.44 3.19 2.63 2.37 2.47
0.09 0.09 0.13 0.15 0.30 0.03 0.43 0.33 0.47 1.11 0.87 0.89 0.34 0.09 0.04 0.03 0.15 0.19 0.26 0.52 0.37 0.71 0.55 0.85 1.78 1.62 1.19 0.86 0.98 1.52 1.52 1.58 1.62 1.14 0.47 0.57 0.45 0.49 0.32 0.29 0.15 0.20 0.10 0.10 0.10 0.52 1.05 1.26 1.51 2.09 2.41 2.22 2.80 4.17 3.47 3.28 3.55 4.70 5.91 5.11 5.13 4.73 4.93 4.43 3.79 4.32 4.89 5.55 4.70 5.55 6.58 5.35 4.80 4.97 5.54 6.16 5.56 4.86 4.34 3.20 3.52 3.61 3.41 4.00 3.61 3.15
0.15 0.10 0.13 0.12 0.14 0.06 0.16 0.23 0.46 0.96 1.64 1.02 0.33 0.19 0.06 0.09 0.07 0.14 0.45 1.14 0.55 0.67 0.76 1.20 0.95 0.78 1.25 1.33 0.97 0.88 1.28 1.56 1.80 1.07 0.56 0.68 0.59 0.40 0.54 0.36 0.26 0.16 0.15 0.07 0.23 0.21 0.28 0.23 0.45 1.33 1.48 2.07 3.05 3.85 4.15 4.39 4.31 4.49 4.16 3.93 4.04 4.76 4.80 5.04 4.29 3.74 3.26 4.85 4.88 5.28 6.12 5.76 5.22 5.90 4.44 3.92 4.29 4.32 4.24 3.46 3.29 3.30 4.02 4.03 3.32 3.52
0.21 0.15 0.23 0.20 0.13 0.07 0.16 0.24 0.65 1.01 1.78 0.54 0.39 0.23 0.05 0.02 0.04 0.29 0.88 1.58 0.87 0.76 0.73 0.81 0.82 0.70 0.88 0.94 1.20 1.28 1.02 1.47 1.69 0.95 0.39 0.31 0.39 0.34 0.41 0.41 0.41 0.20 0.13 0.20 0.10 0.18 0.15 0.21 0.25 0.40 0.66 0.85 0.98 1.30 2.81 3.53 3.79 3.61 3.16 4.01 3.12 3.76 3.84 4.52 5.18 5.89 5.49 5.88 5.39 4.72 4.80 3.28 3.56 4.06 4.16 4.21 4.13 3.84 4.37 3.98 4.61 4.39 3.44 3.12 3.37 3.11
0.39 0.38 0.25 0.29 0.10 0.12 0.08 0.11 0.13 0.36 0.33 0.29 0.44 0.31 0.06 0.08 0.27 0.70 1.29 2.88 0.62 0.44 0.85 0.87 1.32 1.59 1.39 1.01 0.41 0.93 0.62 0.88 1.19 0.77 0.51 0.35 0.24 0.21 0.22 0.21 0.33 0.25 0.17 0.07 0.08 0.10 0.11 0.21 0.56 0.41 0.33 0.64 0.77 1.60 2.51 2.60 3.36 3.58 4.07 4.13 3.95 5.63 4.64 4.23 4.63 4.67 5.54 4.64 4.49 4.88 3.66 3.06 3.25 3.57 3.41 2.85 3.12 4.57 4.70 4.08 4.93 4.74 3.24 3.33 3.52 3.33
0.27 0.33 0.25 0.43 0.32 0.29 0.36 0.26 0.75 0.75 0.79 0.57 0.37 0.37 0.35 0.33 0.75 1.73 2.19 0.44 0.60 0.65 0.53 0.69 0.88 1.30 1.20 1.06 0.81 0.90 0.96 1.11 0.85 0.63 0.38 0.55 0.46 0.19 0.15 0.11 0.19 0.25 0.29 0.12 0.10 0.08 0.16 0.09 0.41 0.74 0.43 0.36 0.61 1.03 2.23 1.90 2.87 3.00 3.06 2.93 3.33 3.41 4.41 4.78 4.90 4.11 3.53 3.69 3.61 3.08 3.03 2.93 4.15 4.02 3.48 3.83 4.06 5.09 5.70 5.64 4.62 4.01 3.60 3.93 3.33 3.93
1.35 0.59 0.84 0.71 0.54 0.32 0.33 0.63 0.46 0.58 2.15 0.24 0.79 0.40 0.57 1.45 2.27 1.09 0.63 0.50 0.43 0.84 0.46 0.76 0.89 1.14 1.01 1.10 0.82 0.96 1.12 1.06 0.63 0.49 0.25 0.25 0.42 0.20 0.14 0.09 0.16 0.19 0.23 0.20 0.16 0.23 0.13 0.19 0.68 0.96 0.95 1.07 1.18 1.37 2.24 3.23 2.78 2.68 2.55 2.23 2.56 3.08 3.31 3.70 2.80 3.03 3.23 3.04 3.53 4.28 5.19 4.02 3.24 3.38 3.47 4.67 5.09 5.73 5.25 5.09 5.48 5.51 4.70 4.99 4.56 7.00
1.25 0.72 0.92 0.79 0.55 1.41 0.80 0.89 1.19 1.26 0.51 0.26 0.63 2.19 1.01 1.12 1.03 0.93 1.09 1.24 0.74 0.67 0.73 0.79 0.92 0.73 0.80 0.68 0.97 0.59 0.69 0.64 0.33 0.31 0.24 0.28 0.24 0.13 0.11 0.16 0.10 0.15 0.17 0.18 0.37 0.37 0.19 0.34 1.05 2.37 1.28 1.45 1.36 1.28 1.47 1.05 1.25 1.82 1.07 1.80 1.80 2.08 2.63 2.25 1.85 2.10 2.64 2.95 3.61 4.18 3.84 3.68 3.15 3.43 3.48 4.51 6.03 5.56 5.12 4.71 4.12 4.09 3.88 4.55 5.36 7.33
1.43 1.13 1.56 1.64 0.98 0.66 1.48 1.03 0.94 0.34 0.59 0.44 0.76 0.76 0.68 1.01 1.42 1.07 0.65 1.25 1.26 0.90 0.67 0.57 0.61 0.45 0.87 1.03 0.70 0.74 0.73 0.61 1.19 0.92 0.31 0.30 0.21 0.20 0.17 0.15 0.18 0.21 0.31 0.41 0.47 0.35 0.48 0.59 1.25 2.24 1.94 1.50 1.07 1.65 2.12 1.20 1.00 0.64 0.56 0.68 1.12 1.19 0.90 0.89 1.04 1.23 1.66 2.13 2.74 4.50 4.07 3.66 3.44 3.88 4.34 4.50 4.72 4.18 3.69 4.19 4.56 5.45 5.53 6.24 7.61 7.14
1.25 0.82 0.86 0.82 0.96 0.48 0.32 0.56 0.93 0.66 0.43 0.69 0.40 0.54 0.48 0.81 1.63 1.47 0.86 1.13 1.60 1.73 0.75 0.81 0.30 0.51 0.46 0.44 0.42 0.33 0.44 0.61 0.47 0.67 0.93 0.51 0.25 0.31 0.22 0.19 0.18 0.21 0.32 0.39 0.51 0.54 0.63 0.98 1.62 1.97 2.04 1.92 1.98 2.23 2.30 2.00 1.41 1.05 0.96 1.18 0.74 0.67 0.79 0.78 0.70 0.76 0.85 1.43 2.97 4.34 3.90 3.91 3.72 3.62 4.44 3.64 3.38 2.86 2.77 3.33 3.75 3.60 4.03 5.09 7.97 8.55
1.02 0.57 0.82 0.77 1.06 0.50 1.64 0.84 0.76 1.47 0.57 0.63 0.71 0.56 0.50 0.35 1.59 1.93 1.25 1.20 1.40 2.07 1.13 0.88 0.43 0.54 0.39 0.36 0.45 0.38 0.40 0.28 0.29 0.32 0.29 0.30 0.31 0.42 0.29 0.19 0.20 0.31 0.31 0.41 0.47 0.64 0.80 1.21 1.25 1.42 1.80 1.61 1.92 1.97 2.34 2.57 2.53 1.82 1.39 1.31 1.18 1.28 1.04 1.09 0.92 0.83 1.12 0.94 1.91 2.63 3.14 3.23 3.16 3.27 3.81 2.73 2.80 2.68 2.47 2.11 2.17 2.56 3.27 3.97 4.36 4.89
1.44 0.85 0.84 0.75 0.96 0.60 1.56 1.14 1.13 1.00 1.17 1.07 1.05 1.06 1.32 1.45 1.06 1.53 0.99 0.81 1.44 1.78 1.31 1.21 0.69 0.59 0.53 0.54 0.54 0.89 1.13 0.74 0.69 0.65 0.81 0.78 0.84 0.50 0.61 0.65 0.70 0.66 0.75 0.70 0.88 0.95 0.98 1.12 0.92 1.37 1.56 1.80 1.79 1.75 2.08 2.49 2.68 2.35 1.67 1.34 1.17 1.22 1.00 0.82 0.81 0.73 0.99 0.99 1.50 1.64 1.60 1.75 2.63 2.82 2.61 3.00 2.60 1.72 1.68 2.36 2.15 1.77 2.08 2.66 3.18 3.57
1.48 0.63 1.77 1.07 1.11 0.95 1.15 1.40 1.51 0.84 1.33 1.61 1.17 1.49 1.46 1.03 1.47 1.51 1.72 1.22 0.71 1.41 1.60 1.20 0.80 0.84 0.63 1.89 2.32 1.48 0.95 0.77 0.86 1.25 1.12 0.85 0.72 0.93 0.98 1.23 1.55 1.05 1.20 1.49 1.65 1.35 1.08 1.06 1.11 1.08 1.78 1.84 1.95 1.83 2.05 2.59 3.43 3.53 2.39 2.10 2.38 2.14 2.15 1.96 1.58 1.44 1.42 1.82 1.97 1.83 1.59 1.71 1.49 2.29 1.76 2.16 1.80 1.59 1.66 2.03 2.00 1.50 1.70 1.57 2.83 2.97
1.12 1.27 1.27 1.02 1.09 1.11 1.35 2.02 1.57 1.53 1.85 1.31 1.33 1.55 1.41 1.48 1.62 1.59 1.60 1.16 1.12 1.28 1.98 1.21 0.87 0.79 0.58 0.36 0.38 0.85 0.79 1.11 1.08 0.72 0.85 0.70 0.94 0.66 0.74 0.72 0.91 1.04 0.89 0.70 0.80 1.12 1.01 0.94 0.82 0.69 0.57 1.02 1.89 1.85 1.70 2.33 3.42 2.72 2.66 2.54 2.51 2.35 2.15 1.75 1.93 2.25 2.70 2.39 2.42 2.25 1.44 2.53 2.12 1.63 1.32 1.86 2.86 2.26 2.69 3.30 2.85 2.04 2.53 2.37 2.94 2.93
1.75 1.43 1.31 1.75 1.37 2.00 1.22 1.21 1.10 1.09 1.13 1.18 1.25 1.20 1.26 1.16 1.18 1.46 1.93 1.79 1.22 0.88 1.59 1.48 1.36 0.99 0.76 0.53 0.44 0.32 0.32 0.34 0.31 0.42 1.18 1.16 0.81 1.22 1.14 1.29 0.55 0.68 0.97 0.81 0.89 0.85 0.86 0.79 0.90 1.10 1.31 1.68 2.04 3.00 2.95 2.57 1.54 2.21 2.45 2.06 2.34 2.58 2.23 1.65 1.92 1.67 1.93 2.15 1.79 1.13 1.25 1.20 1.43 1.56 1.75 1.96 1.90 1.92 1.67 1.40 2.70 2.44 1.89 2.55 3.16 2.41